Theta_e
307 306 306 306 307 307 307 306 308 311 310 311 311 312 311 313 313 313 313 313 313 313 314 315 314 315 315 314 313 312 316 317 317 316 318 317 317 316 316 316 316 316 316 317 317
309 307 307 307 306 307 307 307 311 311 312 310 310 311 311 314 315 314 312 313 313 313 314 314 314 314 315 315 314 315 316 317 316 316 316 316 316 316 316 316 317 316 316 316 316
315 307 309 309 308 307 308 311 312 311 312 308 308 311 314 314 317 314 313 314 313 313 315 315 314 314 315 315 315 316 316 316 316 315 315 316 316 316 317 318 317 316 317 316 316
314 313 308 312 311 313 313 313 312 311 312 308 311 316 316 316 318 314 313 313 313 314 315 316 316 316 317 317 316 317 315 315 315 315 315 316 315 316 316 316 316 316 316 316 316
314 315 308 312 314 314 313 311 311 311 312 310 315 314 315 316 316 313 313 313 314 315 315 316 317 317 318 317 317 317 317 316 316 316 316 316 317 316 315 315 315 316 316 316 316
314 315 313 309 313 314 314 311 311 312 312 312 313 313 316 316 314 313 313 313 315 315 316 316 316 316 317 317 318 317 317 317 317 317 317 317 317 317 316 314 314 315 316 316 316
314 315 315 308 312 313 310 310 312 312 313 314 314 315 316 316 315 315 315 316 316 316 316 316 315 316 316 318 317 317 318 319 318 317 317 317 317 318 317 316 317 317 317 317 317
314 315 312 308 313 311 310 311 313 312 313 314 314 316 315 314 314 316 316 317 316 316 316 316 315 316 316 317 317 318 319 320 319 318 317 317 318 318 317 317 318 317 317 317 318
314 310 308 311 312 311 309 312 313 313 313 314 315 318 316 315 315 315 315 316 316 316 316 315 315 317 316 318 319 319 319 318 318 318 318 318 318 318 317 317 318 318 317 317 318
313 311 308 313 311 310 313 313 314 313 313 313 314 316 315 314 315 314 314 314 315 314 316 316 316 317 318 318 317 316 316 316 317 317 316 316 317 318 317 317 317 317 317 317 318
312 312 310 312 312 316 316 316 318 318 317 317 316 316 314 314 314 314 313 313 314 315 316 315 316 317 315 315 315 315 315 315 315 316 317 317 317 318 318 318 318 317 317 317 318
312 312 311 312 314 315 316 316 315 316 319 316 315 314 314 314 315 314 314 314 315 317 316 316 317 314 314 314 314 314 315 315 316 317 318 318 319 319 319 319 318 317 317 317 317
314 314 313 312 313 314 315 314 316 316 320 317 316 315 314 314 315 314 314 314 315 316 316 316 316 314 314 314 314 315 316 317 317 317 317 317 319 319 320 320 318 317 317 318 317
315 315 315 314 314 315 314 316 316 316 322 317 315 315 314 315 315 313 314 314 316 316 315 316 315 315 314 314 315 316 315 316 317 318 319 318 322 319 319 319 320 319 319 318 318
315 314 316 317 316 316 315 317 317 319 322 317 314 313 315 316 315 315 314 314 316 316 314 316 315 315 315 314 315 316 316 317 318 319 319 319 320 320 319 319 319 320 319 319 319
316 314 315 317 317 315 315 316 317 323 320 316 315 316 318 317 316 314 315 315 315 315 315 316 315 315 315 314 314 314 316 317 318 320 322 320 320 319 319 319 319 320 319 319 319
313 316 316 317 317 316 316 318 323 319 317 318 318 318 319 318 316 316 316 317 318 321 317 317 316 315 314 315 314 314 316 323 322 325 324 319 319 319 319 318 318 318 319 319 319
306 316 316 317 317 314 316 320 320 317 318 318 319 319 319 316 317 317 317 318 316 314 318 318 318 315 314 315 314 314 317 323 323 321 320 318 319 319 318 318 316 317 318 317 318
307 316 318 316 316 315 318 318 319 318 318 319 319 319 318 316 318 317 318 318 315 315 317 319 317 316 315 314 314 316 319 318 322 320 322 319 318 318 318 317 318 318 318 318 319
307 317 318 316 312 316 318 316 318 317 318 318 320 319 319 319 318 318 318 316 315 314 315 317 319 315 314 314 315 316 317 319 321 322 322 318 318 317 317 317 318 318 319 319 319
309 319 316 310 315 317 316 317 316 316 317 319 320 320 320 319 319 318 317 316 314 315 314 316 319 316 316 316 314 315 319 318 317 321 321 320 318 318 317 318 318 319 318 318 318
312 317 311 311 316 315 315 315 313 316 317 317 318 318 319 319 319 317 317 316 315 314 316 315 317 319 316 314 314 315 317 318 324 319 319 319 320 317 318 317 317 318 317 316 316
313 314 312 314 314 314 315 314 314 315 316 316 318 317 316 317 320 316 316 314 313 314 315 314 316 318 317 314 316 315 314 315 316 318 320 322 318 315 315 316 315 316 316 316 316
312 316 313 314 313 315 315 315 314 313 314 316 316 313 315 316 316 316 315 312 313 312 313 314 317 317 318 316 315 316 315 314 316 319 319 319 317 317 316 316 315 314 314 314 315
310 314 313 315 313 313 314 314 314 315 313 313 314 314 314 314 315 315 314 313 313 313 313 314 316 315 314 313 314 314 314 314 315 316 319 317 316 315 314 314 314 312 313 313 313
311 310 309 310 312 314 312 314 313 314 311 312 313 313 312 312 312 313 313 315 314 314 314 313 314 313 314 313 313 314 314 315 314 313 314 315 315 313 312 311 312 311 311 311 311
306 308 309 310 311 312 313 312 312 310 311 311 311 311 312 312 311 312 312 312 314 316 316 314 314 314 314 313 313 317 316 313 313 313 315 315 314 313 312 311 310 309 309 309 309
Wind_Speed
20 18 16 13 10 9 10 11 11 13 12 11 7 9 14 15 16 13 11 11 12 11 12 5 6 5 5 5 3 2 6 9 11 7 10 6 12 12 11 17 18 17 21 18 13
21 18 16 14 12 10 10 11 12 12 12 13 7 9 13 14 15 14 12 12 11 10 9 8 6 3 3 2 1 5 6 6 6 7 10 12 14 16 15 17 16 16 19 21 19
23 16 15 13 12 11 11 10 14 11 11 11 9 9 11 9 7 10 11 13 14 13 9 10 5 2 4 2 4 1 6 4 11 12 10 15 20 19 18 18 17 14 15 15 14
25 18 13 13 12 11 11 9 12 10 10 9 10 9 10 4 3 2 7 6 8 10 9 10 10 3 3 6 4 9 3 7 12 12 17 19 22 24 24 25 21 21 17 18 18
25 18 11 9 9 10 10 12 12 6 7 8 10 11 12 11 11 5 5 5 5 6 7 8 9 7 6 8 5 7 6 11 16 19 19 18 19 22 28 27 26 24 22 22 22
24 18 10 7 7 9 11 12 9 5 6 9 11 12 8 14 4 4 3 3 4 5 6 7 8 9 5 10 8 10 16 20 18 15 9 14 18 16 17 19 23 22 21 21 21
25 18 9 6 6 9 12 11 6 6 10 12 14 14 12 8 4 6 6 5 7 7 8 7 7 8 12 12 6 17 18 17 16 8 14 21 18 23 16 15 17 20 22 21 21
25 17 9 7 7 10 12 7 7 7 10 10 10 11 9 7 5 7 7 8 7 8 9 10 9 12 12 15 17 18 15 12 12 13 14 11 22 19 20 17 22 21 20 23 22
22 16 11 8 9 12 12 6 7 8 9 7 5 2 7 8 4 5 8 6 7 6 6 7 8 13 15 13 14 15 16 22 26 21 18 20 28 23 22 21 25 28 28 28 26
18 15 11 9 11 13 10 6 8 6 7 5 4 3 5 8 2 6 8 9 6 11 9 5 10 10 12 12 15 21 23 22 24 24 24 26 29 25 31 31 32 32 30 30 29
15 14 9 10 12 15 11 7 0 2 3 2 2 3 2 8 2 4 7 11 9 7 7 9 10 10 14 12 13 17 22 26 26 23 23 27 27 27 28 30 31 31 31 32 32
12 13 9 10 12 12 13 5 4 1 2 1 4 2 3 7 6 4 8 8 8 11 9 11 10 6 10 12 17 21 23 25 24 20 18 24 30 29 26 26 32 31 33 33 32
8 10 8 3 11 9 9 7 4 1 6 4 4 3 3 8 10 5 7 12 9 11 12 11 13 10 12 17 20 19 19 20 22 23 22 25 30 20 18 17 26 33 34 35 36
3 7 9 7 4 10 5 13 1 2 5 6 4 3 4 12 4 8 6 11 12 11 11 9 6 13 17 18 16 17 16 21 23 21 19 19 24 25 21 20 17 22 27 30 31
3 2 7 10 5 6 10 8 2 1 4 3 3 1 9 7 13 4 6 10 15 15 8 8 14 18 16 11 13 18 17 19 24 24 24 24 13 19 17 18 12 8 11 16 20
4 1 5 9 9 8 10 3 1 5 2 2 1 5 11 14 5 10 13 14 17 10 10 15 18 15 10 14 12 19 17 19 25 13 9 15 8 10 9 10 8 5 4 4 14
4 0 3 6 5 10 11 1 5 4 2 3 6 11 17 10 10 9 17 12 8 7 11 20 6 5 9 14 18 16 13 8 5 5 10 10 11 11 17 12 9 10 12 6 6
7 6 2 5 8 10 6 5 4 5 5 8 10 19 12 8 9 13 13 13 4 8 12 10 17 4 9 22 22 18 9 6 8 12 19 20 9 7 17 14 9 10 12 9 5
5 4 3 7 8 9 7 3 4 4 4 10 17 9 4 5 9 11 13 12 4 4 7 13 11 23 18 9 11 9 10 10 7 19 13 9 14 14 4 3 2 5 5 6 2
4 4 5 6 8 2 4 1 2 2 7 8 7 3 11 16 10 14 11 5 8 1 9 12 15 14 7 21 7 10 7 6 4 6 13 11 18 13 5 11 4 2 2 2 3
6 2 6 9 3 1 3 4 5 3 6 4 9 14 15 15 9 17 7 13 7 12 18 15 5 12 22 17 19 11 5 6 4 6 10 15 8 11 8 14 18 4 5 7 7
6 2 10 4 1 3 3 4 5 4 4 8 7 8 8 11 14 8 11 10 16 23 18 10 5 16 23 22 15 12 15 13 5 13 14 12 19 21 15 10 13 20 10 11 12
9 4 8 6 3 4 3 4 4 6 3 5 5 4 9 12 7 7 11 6 27 10 6 3 3 9 13 6 6 11 17 18 18 15 20 13 14 17 18 19 26 26 25 22 19
7 3 4 8 5 4 6 3 5 4 9 5 9 12 7 11 12 12 20 7 15 24 28 24 9 15 15 23 24 27 26 23 18 8 20 19 28 25 24 25 22 25 28 30 33
8 4 3 4 2 7 4 3 7 5 3 10 4 6 10 8 17 21 13 21 25 25 13 5 13 19 23 24 25 28 30 26 21 20 10 21 25 27 25 24 24 32 31 28 31
7 7 6 10 6 7 0 3 7 5 6 5 8 7 12 18 20 27 23 21 15 13 9 4 10 16 24 24 25 27 26 17 13 14 19 22 30 28 24 28 27 27 30 34 35
7 6 6 4 5 5 4 5 7 13 8 12 10 17 17 18 19 27 34 37 27 23 20 9 6 9 20 20 25 16 3 9 14 15 12 18 32 28 25 21 24 33 37 36 37
Wind_Direction
22 24 25 26 28 30 28 26 26 19 21 16 39 108 109 90 71 64 69 72 65 58 40 38 59 85 79 83 86 226 246 254 261 254 258 253 290 283 286 275 271 263 265 273 293
20 21 26 28 33 35 32 32 26 15 13 12 49 124 126 93 85 64 76 70 62 63 52 47 49 73 82 80 46 284 266 330 351 306 277 289 280 295 290 277 270 267 263 263 267
19 17 20 26 33 34 35 45 27 22 21 30 77 112 149 119 94 52 76 80 73 71 41 34 35 64 55 4 8 327 298 329 279 285 276 282 282 281 273 270 267 264 277 271 248
17 15 16 22 33 41 39 29 15 23 35 60 92 98 124 117 57 100 91 63 57 61 39 37 38 53 356 3 350 285 331 303 297 289 275 275 280 276 265 270 274 268 267 265 260
13 12 13 23 32 34 27 18 7 30 58 88 108 108 96 93 89 115 95 76 56 24 25 18 23 355 1 340 306 266 323 294 291 285 279 283 271 271 271 268 261 260 262 262 263
6 7 10 17 30 24 11 5 8 51 83 104 118 114 93 86 103 82 28 353 322 346 351 356 355 345 288 309 288 324 300 295 287 286 255 275 277 274 271 273 260 257 257 255 257
5 6 10 17 30 22 10 8 49 89 112 108 111 103 75 76 56 16 354 303 291 294 307 312 318 310 319 303 325 295 291 285 267 258 276 301 272 258 252 259 256 259 261 251 255
7 13 27 36 35 22 7 26 82 108 131 127 118 92 80 47 32 354 319 312 289 281 278 279 287 287 278 300 279 274 291 275 300 296 300 267 280 286 278 246 269 263 257 254 253
13 26 36 51 35 14 10 61 91 116 133 129 103 81 79 20 20 0 13 354 315 292 274 263 274 280 286 271 294 275 284 299 300 300 291 277 276 280 274 270 261 266 263 257 250
17 26 38 49 31 21 25 88 88 102 123 98 85 191 67 1 295 1 339 344 314 305 261 249 283 269 267 275 301 313 301 297 293 301 298 286 281 281 277 272 265 263 254 252 251
21 25 51 55 37 37 43 77 284 119 44 41 65 74 27 346 308 332 348 336 320 274 291 318 294 296 325 311 300 295 290 291 291 297 295 287 284 279 278 272 263 261 257 248 249
30 34 65 56 46 40 44 70 42 318 219 104 145 142 351 351 307 311 348 345 317 318 306 288 283 346 300 292 293 295 292 289 298 307 306 296 285 285 281 271 264 259 255 247 246
41 42 45 51 39 28 45 24 3 6 257 182 208 268 341 335 312 302 327 329 313 312 335 301 301 313 292 303 300 294 290 300 305 304 289 284 280 285 287 270 259 254 252 251 243
61 44 34 29 24 8 3 350 324 165 253 141 200 194 301 328 257 299 305 328 304 316 324 290 311 299 307 302 309 302 315 305 295 300 296 307 291 292 288 281 270 265 252 247 239
9 10 22 20 7 359 341 -0 109 161 269 85 151 255 320 323 313 104 309 309 304 318 277 270 313 315 305 310 318 299 306 302 289 286 287 282 267 290 281 272 289 274 257 244 230
360 289 356 15 20 1 356 11 127 234 218 141 281 296 313 333 301 301 308 305 292 293 277 272 278 276 294 309 290 302 291 296 280 276 276 279 309 301 316 345 337 346 26 328 220
315 220 14 25 9 357 350 304 256 270 131 37 328 323 319 309 296 320 321 314 309 309 312 315 264 247 286 302 304 304 310 296 274 223 274 339 293 295 305 318 318 315 296 278 225
331 221 314 360 357 352 339 257 267 45 348 344 318 310 297 358 322 323 307 309 310 281 311 313 314 354 317 304 296 297 298 271 296 308 305 313 280 309 331 308 279 300 269 244 230
1 214 3 325 321 335 289 277 2 359 353 321 310 284 284 255 332 316 310 310 313 313 317 317 288 317 303 322 307 308 269 293 283 268 265 251 252 241 198 76 93 49 25 208 193
25 143 350 333 336 326 264 306 279 290 319 301 297 298 316 324 316 332 312 347 318 274 334 298 301 304 287 311 279 238 275 277 222 281 298 294 307 293 17 348 42 84 35 171 192
45 183 338 339 45 281 341 345 302 316 322 294 289 294 301 313 298 313 275 310 14 326 327 312 248 274 301 291 300 279 249 236 274 273 287 299 285 19 341 311 305 317 277 286 289
15 245 346 43 204 7 346 344 330 289 292 287 284 283 301 319 298 288 270 291 329 320 299 322 276 281 298 289 268 285 287 286 262 278 289 290 283 279 292 313 322 303 274 267 276
342 315 349 31 -0 357 340 286 275 299 309 295 285 283 312 294 303 267 274 294 312 320 336 301 265 298 299 293 183 285 302 290 282 280 272 265 271 298 303 300 290 289 281 264 265
347 315 18 49 54 339 337 294 296 279 283 256 281 293 303 293 281 278 291 302 295 303 293 289 260 263 276 289 304 297 293 282 271 265 286 282 290 301 295 290 295 295 290 284 283
7 34 351 323 32 326 286 286 302 313 269 292 268 247 324 287 296 283 290 304 302 298 276 266 275 293 288 288 288 285 287 295 289 276 273 287 290 293 305 310 305 300 294 286 278
2 349 322 293 292 293 166 271 294 295 305 283 276 310 297 286 285 292 296 292 299 293 285 251 285 296 287 286 290 304 303 294 291 286 284 286 289 290 309 299 295 288 280 274 269
11 339 314 294 303 294 339 314 305 313 277 252 301 305 294 289 291 285 285 284 276 278 284 267 261 288 289 302 308 291 356 300 285 290 279 280 290 301 294 292 295 291 283 278 275